Regional Weather Roundup
Issued by NWS Charleston, SC

Current Version | Previous Version | Graphics & Text | Print | Product List | Glossary On
Versions: 1 2 3 4 5 6 7 8 9 10 11 12 13 14 15 16 17 18 19 20 21 22 23 24 25 26 27 28 29 30 31 32 33 34 35 36 37 38 39 40 41 42 43 44 45 46 47 48 49 50
000
ASUS42 KCHS 312212
RWRCHS

REGIONAL WEATHER ROUNDUP
NATIONAL WEATHER SERVICE CHARLESTON SC
600 PM EDT FRI JUL 31 2015

NOTE: "FAIR" INDICATES FEW OR NO CLOUDS BELOW 12,000 FEET WITH NO
SIGNIFICANT WEATHER AND/OR OBSTRUCTIONS TO VISIBILITY.

NOT ALL STATIONS ARE QUALITY CONTROLLED BY THE NATIONAL
WEATHER SERVICE. USE DATA WITH CAUTION...ESPECIALLY
DEWPOINT OBSERVATIONS.

SCZ027-030-031-034>040-042>050-312300-
...SOUTHEAST SOUTH CAROLINA...

CITY           SKY/WX    TMP DP  RH WIND       PRES   REMARKS
N CHARLESTON   CLOUDY    86  76  71 SW9       29.89S HX  96
WATERFRONT PRK   N/A     84  79  85 SW12      29.88R HX  96
MOUNT PLEASANT FAIR      84  79  84 S8        29.90S HX  96
JOHNS ISLAND   FAIR      84  79  84 S9G16     29.91S HX  96
PINOPOLIS      NOT AVBL
MONCKS CORNER  FAIR      86  73  66 SE8       29.88S THUNDER HAZE
SUMMERVILLE    TSTM      77  77 100 SW6       29.92R
BEAUFORT MCAS  CLOUDY    79  73  82 W5        29.92R
BEAUFORT ARPT  MOCLDY    81  77  89 W6        29.91R
HILTON HEAD IS PTSUNNY   82  77  83 SW5       29.92S HX  91
WALTERBORO     CLOUDY    79  73  83 SW6       29.92F
ALLENDALE      FAIR      84  73  70 E5        29.90R HX  91

...SOUTHERN MIDLANDS AND PEE DEE...

CITY           SKY/WX    TMP DP  RH WIND       PRES   REMARKS
GEORGETOWN     NOT AVBL
KINGSTREE      NOT AVBL
ORANGEBURG     PTSUNNY   83  71  67 S17G26    29.91R
BARNWELL       FAIR      88  75  66 S7        29.90R HX  97
AIKEN          FAIR      91  61  35 SE3       29.93R HX  91
MANNING        RAIN      88  70  55 S6        29.87S HX  92
COLUMBIA       MOSUNNY   95  64  35 CALM      29.87F HX  97
SUMTER         SUNNY     94  67  40 W6        29.85F HX  97
FLORENCE       SUNNY     95  69  42 N7        29.86F HX 100
MYRTLE BEACH   MOSUNNY   88  75  66 S17       29.90R HX  97
N MYRTLE BEACH PTSUNNY   85  75  72 S10       29.87F HX  93

$$

GAZ063-065-086>088-099>101-113>116-118-119-134>141-150-312300-
...SOUTHEAST GEORGIA...

CITY           SKY/WX    TMP DP  RH WIND       PRES   REMARKS
SAVANNAH ARPT  LGT RAIN  77  75  93 CALM      29.91S
HUNTER AAF     CLOUDY    79  76  91 W2        29.89S
FORT STEWART   CLOUDY    77  77 100 CALM      29.88F
STATESBORO     CLOUDY    76  76 100 CALM      29.91S
SYLVANIA       LGT RAIN  79  75  88 CALM      29.92R
CLAXTON        NOT AVBL

...CSRA...CENTRAL AND FAR SOUTHEAST GEORGIA...

CITY           SKY/WX    TMP DP  RH WIND       PRES   REMARKS
THOMSON        MOSUNNY   95  72  46 N7        29.93S HX 103
AUGUSTA-BUSH   PTSUNNY   92  70  48 S17G24    29.88R HX  97
AUGUSTA-DANIEL MOSUNNY   94  69  44 S8        29.90R HX  99
SWAINSBORO     FAIR      81  81 100 E5        29.93S HX  91
VIDALIA        CLOUDY    77  73  88 CALM      29.92R
EASTMAN        FAIR      77  77 100 CALM      29.95R
HAZLEHURST     LGT RAIN  83  77  80 E8G18     29.90R HX  93
ALMA           PTSUNNY   87  77  72 MISG      29.89R HX  99
WAYCROSS       PTSUNNY   95  78  58 SW5       29.86S THUNDER HX 111
JESUP          LGT RAIN  81  77  89 NW14      29.93R
BAXLEY         FAIR      81  73  78 E7        29.89S THUNDER
BRUNSWICK      CLOUDY    77  72  83 W7        29.93R
SAINT SIMONS   CLOUDY    84  77  79 SE8       29.90F HX  94

$$

SCZ027-028-034-036>038-045-046-048>050-GAZ119-141-312300-
...LAKE AND SUPPLEMENTAL COASTAL OBSERVATIONS...

STATION/POSITION TIME  TEMP    WIND        PRES    WAVE   SWELL
                       AIR SEA DIR/SP/G            HT/PER HT/PER/DIR
                 (UTC) (F)     (DEG/KT/KT) (MB)    (FT/S) (FT/S/D)
UPR LAKE MARION  NOT AVBL
WINYAH BAY       NOT AVBL
LAKE MURRAY      2100   91     230/  4/  7 1011.2F
ACE BASIN NERRS  2045   84     240/  3     1013.0
FORT PULASKI     2100   83 87  170/  2/  6 1013.2F
SAPELO ISLAND    2100   85     130/  8     1013.0S

$$

ANZ835-935-AMZ111-154-330-350-352-354-370-450-454-472-312300-
...C-MAN AND BUOY OBSERVATIONS...

STATION/POSITION TIME  TEMP    WIND        PRES    WAVE   SWELL
                       AIR SEA DIR/SP/G            HT/PER HT/PER/DIR
                 (UTC) (F)     (DEG/KT/KT) (MB)    (FT/S) (FT/S/D)
BUOY 41004       2150   83 85  210/ 12/ 16 1012.5R   3/ 7   2/ 7
BUOY 41008       2150   82 83  180/ 12/ 14 1012.7F   2/ 5
FOLLY BEACH CMAN 2100   83     200/ 12/ 16 1012.8R
CAPERS NEARSHORE 2108   82     220/ 14/ 17 1012.8R
FRIPP NEARSHORE  2100   83     220/ 14/ 17 1012.4


STATION/POSITION TIME  TEMP    WIND        PRES    WAVE   SWELL
                       AIR SEA DIR/SP/G            HT/PER HT/PER/DIR
                 (UTC) (F)     (DEG/KT/KT) (MB)    (FT/S) (FT/S/D)
5E ST. MARYS GA  2121      85                N/A     3/ 4
FRYING PAN BUOY  2150   84 85  210/ 19/ 23 1012.4F   3/ 6   2/130/ 7
BUOY 41025       2150   82 86  360/  8/ 10 1012.0R   4/ 8   3/170/ 8
CAPE LOOKOUT NC  2100   85     230/ 11/ 13 1011.1S
BUOY 41002       2150   80 81  250/ 19/ 23 1014.7F   8/ 7
BUOY 41010       2120   83 84  160/ 14/ 16 1015.5F
ST AUGUSTINE FL  2200   85 83  220/ 12/ 14 1013.4F


$$



USA.gov is the U.S. government's official web portal to all federal, state and local government web resources and services.